FW6919 Weather Reports


Display with metric or nautical units.
time (UTC)temp
F
wind
direction
speed
MPH
gust
MPH
rain 1hr
in
rain 24hr
in
rain mn
in
humidity
%
barometer
mb
20260905110852 79 0 0.0 0.0 0.00 0.00 0.00 82 1014.5
20260905110435 79 0 0.0 0.0 0.00 0.00 0.00 82 1014.4
20260905105901 79 0 0.0 1.0 0.00 0.00 0.00 82 1014.4
20260905105322 79 0 0.0 2.0 0.00 0.00 0.00 81 1014.5
20260905104751 79 27 1.0 2.0 0.00 0.00 0.00 81 1014.6
20260905104223 80 28 2.0 2.0 0.00 0.00 0.00 80 1014.6
20260905103653 80 30 2.0 2.0 0.00 0.00 0.00 80 1014.8
20260905103124 80 0 0.0 2.0 0.00 0.00 0.00 79 1014.8
20260905102555 80 28 1.0 2.0 0.00 0.00 0.00 79 1014.8
20260905102015 80 30 1.0 2.0 0.00 0.00 0.00 79 1014.6
20260905101546 81 28 1.0 3.0 0.00 0.00 0.00 78 1014.6
20260905101130 81 30 1.0 3.0 0.00 0.00 0.00 78 1014.7
20260905100558 81 28 1.0 3.0 0.00 0.00 0.00 78 1014.6
20260905100134 81 30 1.0 3.0 0.00 0.00 0.00 77 1014.7
20260905095548 81 32 2.0 3.0 0.00 0.00 0.00 77 1014.6
20260905095140 81 30 2.0 4.0 0.00 0.00 0.00 77 1014.6
20260905094614 82 31 2.0 4.0 0.00 0.00 0.00 76 1014.5
20260905094057 82 28 2.0 5.0 0.00 0.00 0.00 76 1014.3
20260905093541 82 29 2.0 6.0 0.00 0.00 0.00 76 1014.3
20260905093025 82 30 4.0 6.0 0.00 0.00 0.00 76 1014.3
20260905092512 82 32 2.0 6.0 0.00 0.00 0.00 75 1014.2
20260905091950 82 32 3.0 8.0 0.00 0.00 0.00 75 1014.3
20260905091443 82 27 3.0 8.0 0.00 0.00 0.00 75 1014.2
20260905090934 82 32 4.0 6.0 0.00 0.00 0.00 74 1014.3
20260905090423 82 31 2.0 8.0 0.00 0.00 0.00 74 1014.3
20260905085913 83 32 3.0 10.0 0.00 0.00 0.00 74 1014.3
20260905085411 83 30 4.0 10.0 0.00 0.00 0.00 74 1014.3
20260905084911 83 32 4.0 8.0 0.00 0.00 0.00 74 1014.2
20260905084410 83 36 3.0 8.0 0.00 0.00 0.00 74 1014.3
20260905083913 83 26 3.0 9.0 0.00 0.00 0.00 74 1014.2
20260905083413 83 34 4.0 12.0 0.00 0.00 0.00 74 1014.2
20260905082911 83 34 5.0 12.0 0.00 0.00 0.00 73 1014.2
20260905082412 83 32 8.0 12.0 0.00 0.00 0.00 74 1014.1
20260905081911 83 29 3.0 6.0 0.00 0.00 0.00 73 1014.1
20260905081414 83 33 2.0 5.0 0.00 0.00 0.00 73 1014.1
20260905080903 83 30 3.0 6.0 0.00 0.00 0.00 73 1014.2
20260905080400 83 32 2.0 8.0 0.00 0.00 0.00 72 1014.1
20260905075846 83 29 2.0 8.0 0.00 0.00 0.00 72 1014.0
20260905075353 83 30 5.0 5.0 0.00 0.00 0.00 72 1014.1
20260905074749 83 30 2.0 5.0 0.00 0.00 0.00 71 1014.1
20260905074150 83 30 2.0 6.0 0.00 0.00 0.00 71 1014.1
20260905073551 84 30 3.0 8.0 0.00 0.00 0.00 71 1014.2
20260905072957 84 34 3.0 9.0 0.00 0.00 0.00 71 1014.3
20260905072514 84 33 3.0 9.0 0.00 0.00 0.00 71 1014.3
20260905072036 84 33 4.0 9.0 0.00 0.00 0.00 70 1014.3
20260905071448 84 360 3.0 9.0 0.00 0.00 0.00 70 1014.4
20260905070907 84 360 3.0 10.0 0.00 0.00 0.00 70 1014.4
20260905070414 84 360 4.0 10.0 0.00 0.00 0.00 70 1014.5
20260905065911 84 360 3.0 11.0 0.00 0.00 0.00 70 1014.4
20260905065434 85 36 5.0 11.0 0.00 0.00 0.00 69 1014.4
20260905064850 85 360 5.0 9.0 0.00 0.00 0.00 69 1014.4
20260905064417 85 360 3.0 9.0 0.00 0.00 0.00 69 1014.5
20260905063944 85 360 3.0 9.0 0.00 0.00 0.00 69 1014.5
20260905063512 85 360 5.0 9.0 0.00 0.00 0.00 68 1014.5
20260905063037 85 360 4.0 9.0 0.00 0.00 0.00 68 1014.4
20260905062456 85 35 6.0 9.0 0.00 0.00 0.00 68 1014.4
20260905062023 85 37 2.0 9.0 0.00 0.00 0.00 67 1014.5
20260905061551 86 36 2.0 11.0 0.00 0.00 0.00 67 1014.4
20260905061121 86 34 4.0 11.0 0.00 0.00 0.00 67 1014.5
20260905060549 86 36 7.0 10.0 0.00 0.00 0.00 67 1014.6
20260905060015 86 36 3.0 9.0 0.00 0.00 0.00 66 1014.4
20260905055445 86 212 5.0 9.0 0.00 0.00 0.00 66 1014.5
20260905055023 86 195 6.0 9.0 0.00 0.00 0.00 66 1014.4
20260905054453 86 209 6.0 10.0 0.00 0.00 0.00 65 1014.3
20260905054031 87 189 6.0 11.0 0.00 0.00 0.00 65 1014.2
20260905053512 87 196 5.0 11.0 0.00 0.00 0.00 65 1014.3
20260905053049 87 215 6.0 12.0 0.00 0.00 0.00 65 1014.2
20260905052526 87 172 5.0 12.0 0.00 0.00 0.00 64 1014.2
20260905052011 87 183 3.0 16.0 0.00 0.00 0.00 64 1014.1
20260905051548 87 188 5.0 16.0 0.00 0.00 0.00 64 1014.1
20260905051027 87 219 8.0 12.0 0.00 0.00 0.00 63 1014.2
20260905050503 87 193 3.0 9.0 0.00 0.00 0.00 63 1014.2
20260905050045 87 192 4.0 8.0 0.00 0.00 0.00 63 1014.2
20260905045632 88 204 6.0 8.0 0.00 0.00 0.00 63 1014.3
20260905045115 88 175 6.0 10.0 0.00 0.00 0.00 62 1014.1
20260905044603 88 173 3.0 10.0 0.00 0.00 0.00 62 1014.2
20260905044052 88 192 3.0 14.0 0.00 0.00 0.00 62 1014.2
20260905043546 88 186 8.0 14.0 0.00 0.00 0.00 61 1014.1
20260905043034 88 180 6.0 13.0 0.00 0.00 0.00 61 1014.0
20260905042527 88 221 7.0 13.0 0.00 0.00 0.00 61 1014.1
20260905042020 89 174 6.0 17.0 0.00 0.00 0.00 61 1014.0
20260905041512 89 208 5.0 17.0 0.00 0.00 0.00 60 1014.1
20260905041014 89 175 11.0 14.0 0.00 0.00 0.00 60 1014.1
20260905040511 89 172 5.0 14.0 0.00 0.00 0.00 60 1014.1
20260905040023 89 132 7.0 15.0 0.00 0.00 0.00 60 1014.1
20260905035505 89 192 9.0 16.0 0.00 0.00 0.00 59 1014.1
20260905035006 89 190 4.0 16.0 0.00 0.00 0.00 59 1014.1
20260905034503 90 163 5.0 12.0 0.00 0.00 0.00 58 1014.1
20260905034009 90 238 8.0 14.0 0.00 0.00 0.00 58 1014.1
20260905033512 90 178 4.0 14.0 0.00 0.00 0.00 58 1014.1
20260905033007 90 142 12.0 14.0 0.00 0.00 0.00 58 1014.1
20260905032501 90 202 11.0 11.0 0.00 0.00 0.00 57 1014.2
20260905032000 90 157 6.0 9.0 0.00 0.00 0.00 57 1014.0
20260905031458 91 206 9.0 11.0 0.00 0.00 0.00 56 1014.1
20260905031000 91 180 3.0 11.0 0.00 0.00 0.00 55 1013.9
20260905030459 91 183 6.0 12.0 0.00 0.00 0.00 55 1013.9
20260905025957 91 180 3.0 12.0 0.00 0.00 0.00 55 1013.9
20260905025457 91 180 6.0 12.0 0.00 0.00 0.00 54 1013.8
20260905024956 91 160 4.0 8.0 0.00 0.00 0.00 54 1013.9
20260905024456 91 152 2.0 7.0 0.00 0.00 0.00 54 1013.7
20260905023953 91 158 3.0 7.0 0.00 0.00 0.00 54 1013.7
20260905023455 91 155 6.0 6.0 0.00 0.00 0.00 54 1013.6
20260905022955 92 155 3.0 8.0 0.00 0.00 0.00 53 1013.5
20260905022453 92 155 3.0 10.0 0.00 0.00 0.00 53 1013.5
20260905021952 92 173 7.0 11.0 0.00 0.00 0.00 53 1013.4
20260905021451 92 153 4.0 11.0 0.00 0.00 0.00 53 1013.3
20260905020951 92 157 6.0 13.0 0.00 0.00 0.00 52 1013.2
20260905020449 92 161 5.0 14.0 0.00 0.00 0.00 52 1013.1
20260905015947 92 189 5.0 14.0 0.00 0.00 0.00 52 1013.1
20260905015451 92 148 12.0 14.0 0.00 0.00 0.00 52 1012.9
20260905014950 93 142 5.0 12.0 0.00 0.00 0.00 53 1012.8
20260905014547 93 150 6.0 11.0 0.00 0.00 0.00 53 1012.6
20260905014046 93 136 9.0 11.0 0.00 0.00 0.00 52 1012.6
20260905013548 93 142 3.0 11.0 0.00 0.00 0.00 52 1012.5
20260905013143 93 114 4.0 15.0 0.00 0.00 0.00 52 1012.5
20260905012643 93 122 5.0 15.0 0.00 0.00 0.00 52 1012.5
20260905012045 93 150 10.0 14.0 0.00 0.00 0.00 52 1012.5
20260905011644 93 142 10.0 12.0 0.00 0.00 0.00 52 1012.3
20260905011141 93 138 7.0 14.0 0.00 0.00 0.00 52 1012.3
20260905010640 94 177 4.0 14.0 0.00 0.00 0.00 52 1012.3
20260905010139 94 139 11.0 13.0 0.00 0.00 0.00 52 1012.2
20260905005640 94 134 7.0 12.0 0.00 0.00 0.00 52 1012.2
20260905005139 94 178 5.0 14.0 0.00 0.00 0.00 51 1012.1
20260905004638 94 121 9.0 14.0 0.00 0.00 0.00 51 1012.0
20260905004136 95 122 9.0 15.0 0.00 0.00 0.00 51 1011.9
20260905003638 95 144 5.0 15.0 0.00 0.00 0.00 50 1011.8
20260905003135 95 134 7.0 15.0 0.00 0.00 0.00 50 1011.8
20260905002635 95 118 11.0 15.0 0.00 0.00 0.00 50 1011.6
20260905002133 96 148 9.0 14.0 0.00 0.00 0.00 49 1011.6
20260905001632 96 147 5.0 14.0 0.00 0.00 0.00 48 1011.6
20260905001131 96 115 4.0 12.0 0.00 0.00 0.00 47 1011.6
20260905000631 97 138 5.0 12.0 0.00 0.00 0.00 47 1011.5
20260905000130 97 136 10.0 11.0 0.00 0.00 0.00 47 1011.6
20260904235628 97 116 7.0 10.0 0.00 0.00 0.00 46 1011.6
20260904235130 97 123 3.0 9.0 0.00 0.00 0.00 46 1011.6
20260904234629 97 150 3.0 10.0 0.00 0.00 0.00 45 1011.5
20260904234128 97 164 5.0 11.0 0.00 0.00 0.00 46 1011.6
20260904233627 97 192 7.0 12.0 0.00 0.00 0.00 45 1011.5
20260904233126 97 155 3.0 14.0 0.00 0.00 0.00 45 1011.6
20260904232625 97 202 5.0 14.0 0.00 0.00 0.00 45 1011.5
20260904232126 97 181 3.0 10.0 0.00 0.00 0.00 45 1011.6
20260904231624 97 171 2.0 10.0 0.00 0.00 0.00 45 1011.6
20260904231124 97 195 6.0 10.0 0.00 0.00 0.00 45 1011.8
20260904230624 98 134 10.0 12.0 0.00 0.00 0.00 45 1011.6
20260904230124 97 155 6.0 12.0 0.00 0.00 0.00 46 1011.6
20260904225622 97 162 7.0 11.0 0.00 0.00 0.00 45 1011.7
20260904225123 98 161 6.0 13.0 0.00 0.00 0.00 45 1011.7
20260904224622 98 155 6.0 13.0 0.00 0.00 0.00 45 1011.8
20260904224121 98 198 6.0 11.0 0.00 0.00 0.00 46 1011.8
20260904223620 98 161 6.0 16.0 0.00 0.00 0.00 45 1011.8
20260904223121 97 95 3.0 16.0 0.00 0.00 0.00 46 1011.9
20260904222620 97 155 9.0 16.0 0.00 0.00 0.00 46 1011.9
20260904222120 97 149 6.0 10.0 0.00 0.00 0.00 46 1011.9
20260904221621 97 214 7.0 9.0 0.00 0.00 0.00 46 1011.9
20260904221119 97 203 4.0 13.0 0.00 0.00 0.00 46 1012.0
20260904220620 97 130 3.0 13.0 0.00 0.00 0.00 46 1012.0
20260904220119 98 140 9.0 16.0 0.00 0.00 0.00 46 1012.0
20260904215618 98 138 9.0 16.0 0.00 0.00 0.00 46 1011.9
20260904215119 97 196 4.0 15.0 0.00 0.00 0.00 47 1012.1
20260904214619 97 146 6.0 13.0 0.00 0.00 0.00 47 1012.0
20260904214118 97 134 8.0 16.0 0.00 0.00 0.00 46 1012.1
20260904213618 97 118 6.0 16.0 0.00 0.00 0.00 47 1012.1
20260904213118 97 175 6.0 15.0 0.00 0.00 0.00 47 1012.1
20260904212616 97 123 5.0 14.0 0.00 0.00 0.00 47 1012.2
20260904212119 97 209 8.0 14.0 0.00 0.00 0.00 47 1012.3
20260904211619 97 162 4.0 12.0 0.00 0.00 0.00 46 1012.5
20260904211118 97 163 2.0 12.0 0.00 0.00 0.00 47 1012.5
20260904210615 97 207 5.0 17.0 0.00 0.00 0.00 46 1012.4
20260904210116 97 259 2.0 17.0 0.00 0.00 0.00 47 1012.6
20260904205616 97 161 6.0 17.0 0.00 0.00 0.00 47 1012.7
20260904205115 97 193 7.0 17.0 0.00 0.00 0.00 48 1012.7
20260904204615 97 215 5.0 15.0 0.00 0.00 0.00 47 1012.8
20260904204115 97 208 6.0 14.0 0.00 0.00 0.00 50 1012.7
20260904203616 97 214 10.0 14.0 0.00 0.00 0.00 48 1013.0
20260904203116 96 197 9.0 15.0 0.00 0.00 0.00 50 1013.0
20260904202621 96 212 5.0 15.0 0.00 0.00 0.00 49 1013.0
20260904202117 96 182 7.0 13.0 0.00 0.00 0.00 50 1013.2
20260904201614 96 221 10.0 13.0 0.00 0.00 0.00 51 1013.2
20260904201114 96 202 6.0 12.0 0.00 0.00 0.00 51 1013.3
20260904200614 96 133 8.0 14.0 0.00 0.00 0.00 52 1013.4
20260904200114 95 149 10.0 16.0 0.00 0.00 0.00 53 1013.5
20260904195614 95 145 11.0 16.0 0.00 0.00 0.00 52 1013.6
20260904195114 96 207 8.0 15.0 0.00 0.00 0.00 53 1013.6
20260904194615 95 202 7.0 15.0 0.00 0.00 0.00 52 1013.7
20260904194114 95 163 7.0 14.0 0.00 0.00 0.00 53 1013.7
20260904193614 94 140 3.0 15.0 0.00 0.00 0.00 54 1013.8
20260904193113 94 181 3.0 16.0 0.00 0.00 0.00 53 1013.8
20260904192614 95 116 10.0 18.0 0.00 0.00 0.00 53 1013.8
20260904192111 95 117 9.0 18.0 0.00 0.00 0.00 53 1014.0
20260904191614 95 140 7.0 11.0 0.00 0.00 0.00 55 1013.9
20260904191110 95 228 6.0 12.0 0.00 0.00 0.00 53 1014.0
20260904190612 95 183 3.0 12.0 0.00 0.00 0.00 54 1014.1
20260904190113 94 238 8.0 11.0 0.00 0.00 0.00 55 1014.1
20260904185613 94 161 7.0 11.0 0.00 0.00 0.00 54 1014.2
20260904185112 94 119 2.0 14.0 0.00 0.00 0.00 54 1014.2
20260904184610 94 153 3.0 14.0 0.00 0.00 0.00 53 1014.3
20260904184111 93 109 9.0 16.0 0.00 0.00 0.00 52 1014.4
20260904183614 93 218 8.0 16.0 0.00 0.00 0.00 53 1014.5
20260904183114 93 132 7.0 11.0 0.00 0.00 0.00 53 1014.5
20260904182611 93 133 5.0 12.0 0.00 0.00 0.00 54 1014.6
20260904182113 93 130 5.0 12.0 0.00 0.00 0.00 54 1014.6
20260904181613 93 117 10.0 10.0 0.00 0.00 0.00 54 1014.7
20260904181113 92 207 1.0 14.0 0.00 0.00 0.00 56 1014.7
20260904180611 93 155 3.0 14.0 0.00 0.00 0.00 55 1014.9
20260904180113 93 213 3.0 11.0 0.00 0.00 0.00 56 1014.8
20260904175612 92 203 5.0 10.0 0.00 0.00 0.00 58 1014.9
20260904175112 92 233 7.0 10.0 0.00 0.00 0.00 59 1015.1
20260904174613 91 173 6.0 9.0 0.00 0.00 0.00 59 1015.1
20260904174111 91 160 4.0 8.0 0.00 0.00 0.00 59 1015.1
20260904173614 91 208 6.0 9.0 0.00 0.00 0.00 60 1015.3
20260904173112 91 177 4.0 9.0 0.00 0.00 0.00 60 1015.3
20260904172611 90 173 5.0 9.0 0.00 0.00 0.00 61 1015.3
20260904172123 90 158 7.0 9.0 0.00 0.00 0.00 60 1015.5
20260904171618 90 152 3.0 9.0 0.00 0.00 0.00 61 1015.6
20260904171118 90 236 5.0 7.0 0.00 0.00 0.00 61 1015.6
20260904170617 90 167 4.0 13.0 0.00 0.00 0.00 59 1015.7
20260904170117 90 247 1.0 13.0 0.00 0.00 0.00 61 1015.7
20260904165617 90 236 9.0 13.0 0.00 0.00 0.00 61 1015.8
20260904165118 89 142 5.0 10.0 0.00 0.00 0.00 61 1015.7
20260904164617 88 160 5.0 12.0 0.00 0.00 0.00 62 1015.8
20260904164117 88 232 4.0 12.0 0.00 0.00 0.00 61 1015.8
20260904163615 88 197 5.0 12.0 0.00 0.00 0.00 63 1015.9
20260904163118 87 171 4.0 12.0 0.00 0.00 0.00 64 1015.9
20260904162616 88 263 7.0 11.0 0.00 0.00 0.00 64 1016.0
20260904162115 88 249 4.0 14.0 0.00 0.00 0.00 65 1015.9
20260904161614 87 201 9.0 14.0 0.00 0.00 0.00 66 1016.0
20260904161114 87 214 1.0 14.0 0.00 0.00 0.00 65 1015.9
20260904160614 87 261 10.0 14.0 0.00 0.00 0.00 66 1015.9
20260904160114 86 209 7.0 18.0 0.00 0.00 0.00 67 1016.0
20260904155615 86 191 10.0 18.0 0.00 0.00 0.00 68 1015.8
20260904155113 86 238 6.0 16.0 0.00 0.00 0.00 70 1015.8
20260904154613 85 195 3.0 16.0 0.00 0.00 0.00 71 1015.8
20260904154113 85 225 7.0 16.0 0.00 0.00 0.00 72 1015.7
20260904153612 85 227 16.0 14.0 0.00 0.00 0.00 73 1015.6
20260904153112 85 252 3.0 17.0 0.00 0.00 0.00 73 1015.6
20260904152611 85 218 12.0 17.0 0.00 0.00 0.00 74 1015.7
20260904152112 85 252 8.0 15.0 0.00 0.00 0.00 76 1015.7
20260904151613 84 229 2.0 15.0 0.00 0.00 0.00 79 1015.7
20260904151113 84 220 14.0 12.0 0.00 0.00 0.00 78 1015.7
20260904150613 84 155 7.0 13.0 0.00 0.00 0.00 79 1015.7
20260904150114 84 234 6.0 13.0 0.00 0.00 0.00 80 1015.7
20260904145612 83 230 11.0 11.0 0.00 0.00 0.00 79 1015.6
20260904145111 83 151 5.0 11.0 0.00 0.00 0.00 81 1015.6
20260904144611 83 139 7.0 11.0 0.00 0.00 0.00 83 1015.6
20260904144111 82 207 7.0 12.0 0.00 0.00 0.00 83 1015.6
20260904143614 81 155 6.0 12.0 0.00 0.00 0.00 83 1015.6
20260904143111 81 141 3.0 12.0 0.00 0.00 0.00 84 1015.6
20260904142612 81 177 4.0 12.0 0.00 0.00 0.00 84 1015.6
20260904142110 81 152 3.0 11.0 0.00 0.00 0.00 84 1015.6
20260904141613 81 185 2.0 11.0 0.00 0.00 0.00 85 1015.5
20260904141111 81 140 8.0 10.0 0.00 0.00 0.00 85 1015.6
20260904140612 80 183 7.0 10.0 0.00 0.00 0.00 86 1015.6
20260904140111 80 219 3.0 8.0 0.00 0.00 0.00 86 1015.6
20260904135610 80 153 5.0 9.0 0.00 0.00 0.00 86 1015.6
20260904135112 80 220 7.0 9.0 0.00 0.00 0.00 86 1015.5
20260904134615 80 155 4.0 7.0 0.00 0.00 0.00 87 1015.6
20260904134126 80 207 3.0 9.0 0.00 0.00 0.00 87 1015.4
20260904133626 79 190 4.0 9.0 0.00 0.00 0.00 87 1015.4
20260904133127 79 190 3.0 9.0 0.00 0.00 0.00 87 1015.3
20260904132628 79 180 3.0 9.0 0.00 0.00 0.00 87 1015.3
20260904132127 79 165 4.0 9.0 0.00 0.00 0.00 87 1015.3
20260904131625 79 168 5.0 7.0 0.00 0.00 0.00 87 1015.2
20260904131124 79 204 3.0 9.0 0.00 0.00 0.00 87 1015.1
20260904130625 79 192 5.0 9.0 0.00 0.00 0.00 87 1015.1
20260904130124 79 149 9.0 8.0 0.00 0.00 0.00 87 1015.1
20260904125624 79 165 5.0 10.0 0.00 0.00 0.00 87 1015.1
20260904125122 79 159 4.0 10.0 0.00 0.00 0.00 87 1015.0
20260904124622 79 148 4.0 10.0 0.00 0.00 0.00 87 1014.9
20260904124122 79 167 1.0 8.0 0.00 0.00 0.00 87 1014.9
20260904123622 79 167 3.0 9.0 0.00 0.00 0.00 86 1014.8
20260904123123 79 132 4.0 10.0 0.00 0.00 0.00 86 1014.7
20260904122622 79 173 6.0 10.0 0.00 0.00 0.00 86 1014.8
20260904122120 79 146 5.0 8.0 0.00 0.00 0.00 86 1014.7
20260904121619 79 149 4.0 8.0 0.00 0.00 0.00 86 1014.7
20260904121122 79 167 1.0 7.0 0.00 0.00 0.00 86 1014.6
20260904120618 79 186 4.0 8.0 0.00 0.00 0.00 86 1014.6
20260904120119 79 167 5.0 8.0 0.00 0.00 0.00 86 1014.5
20260904115618 79 152 8.0 7.0 0.00 0.00 0.00 86 1014.4
20260904115118 79 152 5.0 7.0 0.00 0.00 0.00 86 1014.5
20260904114618 79 147 3.0 7.0 0.00 0.00 0.00 86 1014.4
20260904114117 79 160 1.0 6.0 0.00 0.00 0.00 86 1014.4
20260904113616 79 171 2.0 6.0 0.00 0.00 0.00 86 1014.4
20260904113116 79 173 3.0 9.0 0.00 0.00 0.00 86 1014.3
20260904112616 79 185 2.0 9.0 0.00 0.00 0.00 86 1014.2
20260904112116 79 140 3.0 9.0 0.00 0.00 0.00 86 1014.2
20260904111614 79 173 2.0 6.0 0.00 0.00 0.00 86 1014.1